Weather History for Monett, MO

Change the Weather History Date:

Wednesday, January 30, 2013

  Actual Average (KJLN) Record (KJLN)
Temperature  
Mean Temperature 32 °F 36 °F  
Max Temperature 42 °F 46 °F 66 °F (1967)
Min Temperature 23 °F 26 °F -5 °F (1949)
Degree Days  
Heating Degree Days 32 29  
Month to date heating degree days 896  
Since 1 July heating degree days 2513  
Cooling Degree Days 0 0  
Month to date cooling degree days 0  
Year to date cooling degree days 0  
Moisture  
Dew Point 27 °F    
Average Humidity 85    
Maximum Humidity 100    
Minimum Humidity 69    
Precipitation  
Precipitation 0.00 in 0.07 in 2.39 in (1975)
Month to date precipitation 1.96  
Year to date precipitation 1.96  
Sea Level Pressure  
Sea Level Pressure 29.77 in    
Wind  
Wind Speed 15 mph (West)    
Max Wind Speed 25 mph    
Max Gust Speed 33 mph    
Visibility 8 miles    
Events Fog , Rain    
T = Trace of Precipitation, MM = Missing Value Source: NWS Daily Summary

Daily Weather History Graph

Daily Weather History Graph

Search for Another Location

Airport:

Trip Planner

Search our weather history database for the weather conditions in past years. The results will help you decide how hot, cold, wet, or windy it might be!

Date:

Astronomy

Jan. 30, 2013 Rise Set
Actual Time 7:19 AM CST 5:39 PM CST
Civil Twilight 6:52 AM CST 6:06 PM CST
Nautical Twilight 6:21 AM CST 6:38 PM CST
Astronomical Twilight 5:50 AM CST 7:08 PM CST
Moon 9:31 PM CST (1/30) 8:54 AM CST (1/30)
Length of Visible Light 11h 14m
Length of Day
10h 19m
Waning Gibbous, 87% of the Moon is Illuminated
Jan 30
Waning Gibbous
Feb 3
Last Quarter
Feb 10
New
Feb 17
First Quarter
Feb 25
Full

Hourly Weather History & Observations

Time (CST) Temp. Windchill Dew Point Humidity Pressure Visibility Wind Dir Wind Speed Gust Speed Precip Events Conditions
12:15 AM 42.8 °F 40.1 °F 42.8 °F 100% 29.50 in 10.0 mi South 4.6 mph - N/A   Overcast
12:35 AM 42.8 °F 38.0 °F 42.8 °F 100% 29.51 in 4.0 mi SW 8.1 mph - N/A   Overcast
12:55 AM 42.8 °F 36.2 °F 42.8 °F 100% 29.51 in 2.5 mi WSW 12.7 mph - N/A   Overcast
1:15 AM 42.8 °F 35.4 °F 42.8 °F 100% 29.49 in 0.5 mi West 15.0 mph - N/A Fog Fog
1:35 AM 41.0 °F 33.5 °F 41.0 °F 100% 29.51 in 2.0 mi West 13.8 mph - N/A   Overcast
1:55 AM 41.0 °F 33.9 °F 41.0 °F 100% 29.51 in 1.8 mi West 12.7 mph 18.4 mph N/A   Overcast
2:15 AM 41.0 °F 33.1 °F 41.0 °F 100% 29.51 in 1.0 mi West 15.0 mph 23.0 mph N/A   Overcast
2:35 AM 39.2 °F 30.8 °F 39.2 °F 100% 29.52 in 0.5 mi West 15.0 mph - N/A Fog Fog
2:55 AM 37.4 °F 27.2 °F 37.4 °F 100% 29.52 in 1.8 mi West 19.6 mph 25.3 mph N/A   Overcast
3:15 AM 37.4 °F 27.8 °F 37.4 °F 100% 29.53 in 2.0 mi West 17.3 mph 24.2 mph N/A   Overcast
3:35 AM 37.4 °F 28.9 °F 37.4 °F 100% 29.55 in 1.0 mi West 13.8 mph 23.0 mph N/A   Overcast
3:55 AM 35.6 °F 25.9 °F 35.6 °F 100% 29.54 in 5.0 mi West 16.1 mph 26.5 mph N/A   Drizzle
4:15 AM 35.6 °F 25.9 °F 35.6 °F 100% 29.52 in 7.0 mi West 16.1 mph 23.0 mph N/A   Overcast
4:35 AM 35.6 °F 26.6 °F 35.6 °F 100% 29.54 in 7.0 mi West 13.8 mph 19.6 mph N/A   Overcast
4:55 AM 35.6 °F 25.2 °F 33.8 °F 93% 29.52 in 7.0 mi West 18.4 mph 25.3 mph N/A   Overcast
5:15 AM 35.6 °F 27.1 °F 33.8 °F 93% 29.53 in 10.0 mi West 12.7 mph 17.3 mph N/A   Overcast
5:55 AM 35.6 °F 26.2 °F 32.0 °F 87% 29.56 in 10.0 mi WNW 15.0 mph 23.0 mph N/A   Overcast
6:15 AM 33.8 °F 23.2 °F 32.0 °F 93% 29.58 in 10.0 mi WNW 17.3 mph 21.9 mph N/A   Overcast
6:35 AM 33.8 °F 23.9 °F 32.0 °F 93% 29.59 in 10.0 mi West 15.0 mph 23.0 mph N/A   Overcast
6:55 AM 33.8 °F 24.3 °F 32.0 °F 93% 29.61 in 10.0 mi West 13.8 mph 23.0 mph N/A   Overcast
7:15 AM 33.8 °F 21.9 °F 32.0 °F 93% 29.61 in 10.0 mi West 21.9 mph 27.6 mph N/A   Overcast
7:35 AM 33.8 °F 22.2 °F 32.0 °F 93% 29.64 in 10.0 mi West 20.7 mph 27.6 mph N/A   Overcast
7:55 AM 33.8 °F 23.5 °F 32.0 °F 93% 29.64 in 10.0 mi WNW 16.1 mph 20.7 mph N/A   Overcast
8:15 AM 33.8 °F 22.5 °F 30.2 °F 87% 29.66 in 10.0 mi WNW 19.6 mph 28.8 mph N/A   Light Drizzle
8:35 AM 33.8 °F 22.5 °F 30.2 °F 87% 29.67 in 10.0 mi WNW 19.6 mph 23.0 mph N/A   Overcast
8:55 AM 32.0 °F 19.2 °F 28.4 °F 87% 29.69 in 10.0 mi NW 23.0 mph 29.9 mph N/A   Light Drizzle
9:15 AM 32.0 °F 20.1 °F 30.2 °F 93% 29.70 in 3.0 mi NW 19.6 mph 23.0 mph N/A   Light Drizzle
9:35 AM 32.0 °F 20.1 °F 30.2 °F 93% 29.71 in 3.0 mi NW 19.6 mph 25.3 mph N/A Rain Light Rain
9:55 AM 32.0 °F 21.6 °F 28.4 °F 87% 29.73 in 10.0 mi NW 15.0 mph 25.3 mph N/A   Overcast
10:15 AM 32.0 °F 18.9 °F 26.6 °F 80% 29.74 in 10.0 mi NW 24.2 mph 32.2 mph N/A   Overcast
10:35 AM 30.2 °F 16.5 °F 26.6 °F 86% 29.74 in 10.0 mi NW 24.2 mph 32.2 mph N/A   Overcast
10:55 AM 30.2 °F 16.2 °F 26.6 °F 86% 29.75 in 10.0 mi NW 25.3 mph 33.4 mph N/A   Overcast
11:15 AM 30.2 °F 18.5 °F 26.6 °F 86% 29.76 in 10.0 mi NW 17.3 mph 27.6 mph N/A   Overcast
11:55 AM 30.2 °F 17.8 °F 24.8 °F 80% 29.78 in 10.0 mi NW 19.6 mph 27.6 mph N/A   Overcast
12:15 PM 28.4 °F 14.7 °F 24.8 °F 86% 29.79 in 10.0 mi WNW 21.9 mph 29.9 mph N/A   Overcast
12:35 PM 28.4 °F 15.1 °F 23.0 °F 80% 29.79 in 10.0 mi WNW 20.7 mph 29.9 mph N/A   Overcast
12:55 PM 28.4 °F 14.7 °F 23.0 °F 80% 29.80 in 10.0 mi WNW 21.9 mph 31.1 mph N/A   Overcast
1:15 PM 28.4 °F 15.4 °F 23.0 °F 80% 29.81 in 10.0 mi WNW 19.6 mph 28.8 mph N/A   Overcast
1:35 PM 28.4 °F 14.7 °F 23.0 °F 80% 29.81 in 10.0 mi WNW 21.9 mph 27.6 mph N/A   Overcast
1:55 PM 28.4 °F 15.4 °F 23.0 °F 80% 29.82 in 10.0 mi WNW 19.6 mph 28.8 mph N/A   Overcast
2:15 PM 28.4 °F 15.8 °F 23.0 °F 80% 29.83 in 10.0 mi West 18.4 mph 25.3 mph N/A   Overcast
2:35 PM 28.4 °F 15.1 °F 23.0 °F 80% 29.84 in 10.0 mi WNW 20.7 mph 27.6 mph N/A   Overcast
2:55 PM 28.4 °F 15.1 °F 23.0 °F 80% 29.84 in 10.0 mi West 20.7 mph - N/A   Overcast
3:15 PM 28.4 °F 16.2 °F 23.0 °F 80% 29.86 in 10.0 mi West 17.3 mph 26.5 mph N/A   Overcast
3:35 PM 28.4 °F 15.4 °F 23.0 °F 80% 29.87 in 10.0 mi West 19.6 mph 25.3 mph N/A   Overcast
3:55 PM 28.4 °F 15.1 °F 21.2 °F 74% 29.88 in 10.0 mi West 20.7 mph 31.1 mph N/A   Overcast
4:15 PM 28.4 °F 14.7 °F 21.2 °F 74% 29.90 in 10.0 mi West 21.9 mph 26.5 mph N/A   Overcast
4:35 PM 28.4 °F 15.4 °F 21.2 °F 74% 29.90 in 10.0 mi WNW 19.6 mph - N/A   Overcast
4:55 PM 28.4 °F 15.8 °F 21.2 °F 74% 29.91 in 10.0 mi West 18.4 mph - N/A   Overcast
5:15 PM 28.4 °F 18.0 °F 21.2 °F 74% 29.91 in 10.0 mi WNW 12.7 mph 24.2 mph N/A   Overcast
5:35 PM 28.4 °F 15.1 °F 21.2 °F 74% 29.92 in 10.0 mi West 20.7 mph 24.2 mph N/A   Overcast
5:55 PM 28.4 °F 15.8 °F 21.2 °F 74% 29.93 in 10.0 mi West 18.4 mph 24.2 mph N/A   Overcast
6:15 PM 28.4 °F 16.2 °F 21.2 °F 74% 29.94 in 10.0 mi West 17.3 mph - N/A   Overcast
6:35 PM 28.4 °F 15.8 °F 19.4 °F 69% 29.94 in 10.0 mi West 18.4 mph 26.5 mph N/A   Overcast
6:55 PM 26.6 °F 14.7 °F 19.4 °F 74% 29.96 in 10.0 mi West 15.0 mph - N/A   Overcast
7:15 PM 26.6 °F 14.7 °F 19.4 °F 74% 29.97 in 10.0 mi West 15.0 mph - N/A   Overcast
7:35 PM 28.4 °F 18.5 °F 19.4 °F 69% 29.96 in 10.0 mi West 11.5 mph - N/A   Overcast
7:55 PM 28.4 °F 17.5 °F 19.4 °F 69% 29.96 in 10.0 mi WNW 13.8 mph - N/A   Overcast
8:15 PM 26.6 °F 16.8 °F 19.4 °F 74% 29.97 in 10.0 mi West 10.4 mph - N/A   Overcast
8:35 PM 28.4 °F 19.7 °F 21.2 °F 74% 29.98 in 10.0 mi West 9.2 mph - N/A   Overcast
8:55 PM 26.6 °F 15.2 °F 19.4 °F 74% 29.99 in 10.0 mi West 13.8 mph - N/A   Overcast
9:15 PM 26.6 °F 16.2 °F 19.4 °F 74% 30.00 in 10.0 mi West 11.5 mph - N/A   Overcast
9:35 PM 26.6 °F 17.5 °F 19.4 °F 74% 29.99 in 10.0 mi West 9.2 mph - N/A   Mostly Cloudy
9:55 PM 26.6 °F 17.5 °F 19.4 °F 74% 30.00 in 10.0 mi WNW 9.2 mph - N/A   Scattered Clouds
10:15 PM 26.6 °F 18.2 °F 19.4 °F 74% 30.00 in 10.0 mi West 8.1 mph - N/A   Clear
10:35 PM 26.6 °F 19.1 °F 19.4 °F 74% 30.01 in 10.0 mi West 6.9 mph - N/A   Mostly Cloudy
10:55 PM 24.8 °F 17.9 °F 19.4 °F 80% 30.01 in 10.0 mi WSW 5.8 mph - N/A   Mostly Cloudy
11:15 PM 24.8 °F 17.9 °F 19.4 °F 80% 30.01 in 10.0 mi WSW 5.8 mph - N/A   Clear
11:35 PM 23.0 °F 15.8 °F 19.4 °F 86% 30.02 in 10.0 mi WSW 5.8 mph - N/A   Clear
11:55 PM 23.0 °F 17.0 °F 19.4 °F 86% 30.02 in 10.0 mi WSW 4.6 mph - N/A   Clear